Temperature
15 15 15 16 16 17 19 22 24 24 24 24 23 24 23 20 20 17 16 15 15 15 16 16 16 16 16 16 16 16 16 16 16 16 16 16 16 16 16 16 16 16 16 16 16 16 16 16 16
14 15 15 17 17 18 20 22 23 23 23 22 22 22 22 19 17 16 15 15 15 15 15 15 16 16 16 16 16 16 16 16 16 16 16 16 16 16 16 16 16 16 16 16 16 16 16 16 16
14 15 17 17 18 19 21 23 23 22 21 22 22 21 21 18 17 15 15 15 14 14 15 15 15 15 16 16 16 16 16 16 16 16 16 16 16 16 16 16 16 16 16 16 16 16 16 16 16
14 15 17 17 18 21 22 23 22 21 21 21 21 20 18 17 16 15 15 15 14 14 15 15 15 15 15 15 15 15 15 15 15 16 16 16 16 16 16 16 15 15 15 16 16 16 16 16 16
14 16 17 17 18 21 22 23 22 21 21 21 21 19 17 16 16 15 15 14 14 14 14 15 15 15 15 15 15 15 15 15 15 15 15 15 15 15 15 15 15 15 15 15 15 16 16 16 16
15 17 17 17 19 21 22 22 22 21 21 21 21 19 16 15 15 15 14 14 14 14 14 14 14 15 15 15 15 15 15 15 15 15 15 15 15 15 15 15 15 15 15 15 15 15 15 15 15
16 16 17 18 20 21 22 22 21 21 21 21 21 19 16 15 14 14 14 14 14 14 14 14 14 14 14 14 14 14 14 14 14 14 14 14 14 14 15 15 15 15 15 15 15 15 15 15 15
16 17 17 18 19 20 21 21 21 21 20 20 20 19 16 15 14 14 14 14 13 13 13 13 13 13 14 14 14 14 14 14 14 14 14 14 14 14 14 14 14 14 14 15 15 15 15 15 15
15 15 16 18 19 20 20 20 20 19 19 19 18 18 17 15 14 14 13 13 13 13 12 13 13 13 13 13 13 13 13 13 14 14 14 13 13 13 13 14 14 14 14 14 14 14 14 14 14
15 14 17 19 19 19 19 19 19 18 18 18 17 16 16 15 14 13 13 13 13 12 12 12 12 13 13 13 13 13 13 13 13 13 13 13 13 13 13 13 13 13 13 14 14 14 14 14 14
15 15 17 18 18 18 18 19 19 18 17 18 17 15 15 14 13 13 13 13 13 12 12 12 12 12 12 12 12 12 12 12 12 12 12 12 13 13 13 12 13 13 13 13 13 13 13 13 13
16 16 17 17 17 17 17 18 18 18 18 18 17 16 15 14 13 13 13 13 13 12 12 12 12 12 12 12 12 12 12 12 12 12 12 12 12 12 12 12 12 12 12 12 12 12 12 12 12
15 16 17 16 16 16 16 16 17 17 17 17 16 16 15 14 14 14 13 13 13 12 12 12 12 12 12 12 12 12 12 12 12 12 12 11 11 11 11 11 11 11 11 11 11 11 12 12 12
16 16 16 16 16 16 15 15 16 16 16 16 16 15 15 14 14 14 13 13 12 12 12 12 12 12 12 12 11 11 11 11 11 11 11 11 11 11 11 11 11 11 11 11 11 11 11 11 11
15 15 15 15 15 15 15 14 15 16 16 16 15 15 14 14 14 14 13 13 12 12 12 12 11 11 11 11 11 11 11 11 11 11 11 11 10 10 10 10 10 10 10 10 10 10 10 10 11
14 13 13 15 15 15 14 13 15 16 16 16 15 15 15 14 14 13 13 13 12 12 11 11 11 11 11 11 11 11 10 10 10 10 10 10 10 10 10 10 10 10 10 10 10 10 10 10 10
13 12 13 14 15 15 13 13 15 16 16 16 16 15 15 14 14 13 13 13 12 12 11 11 11 11 11 10 10 10 10 10 10 10 10 10 10 10 10 9 9 9 9 9 9 9 9 9 10
12 13 14 14 14 14 13 13 14 15 15 15 16 16 15 14 14 13 13 12 12 11 11 11 11 10 10 10 10 10 10 9 10 10 10 9 9 9 9 9 9 9 9 9 9 9 9 9 9
14 14 14 14 14 14 13 13 14 15 15 15 15 16 15 15 14 13 13 12 12 11 11 10 10 10 10 10 9 9 9 9 9 9 9 9 9 9 9 9 9 8 8 8 8 8 8 8 8
13 13 13 13 14 13 13 13 14 14 14 15 15 15 15 15 14 13 12 12 11 11 10 10 10 10 10 9 9 9 9 9 9 9 9 8 8 8 8 8 8 8 8 8 8 8 7 7 7
13 12 13 13 12 13 12 12 13 14 15 15 15 15 15 14 14 13 12 11 11 10 10 10 10 10 9 9 9 8 8 8 8 8 8 8 8 8 8 8 8 8 8 7 7 7 7 7 7
11 13 13 12 11 10 11 10 13 14 14 14 14 15 14 14 14 13 12 11 11 10 10 10 9 9 9 9 8 8 8 8 8 8 8 8 8 7 7 7 7 7 7 7 7 7 6 6 6
11 12 12 12 11 10 11 10 11 13 13 13 13 14 14 14 13 13 12 11 10 10 10 9 9 9 9 8 8 8 8 8 8 7 7 7 7 7 7 7 7 7 7 6 6 6 6 6 5
11 11 11 11 10 8 10 10 11 12 13 13 13 14 14 13 13 12 12 11 10 10 9 9 8 8 8 8 8 8 8 7 7 7 7 7 7 7 7 6 6 6 6 6 6 6 6 5 5
10 9 8 8 8 8 11 11 11 13 13 13 13 13 13 13 12 12 11 11 10 9 9 9 8 8 8 8 8 8 8 7 7 7 7 7 7 6 6 6 6 6 6 6 5 5 5 5 5
9 9 8 8 9 10 11 10 12 13 13 14 14 13 13 12 11 11 11 10 10 9 9 8 8 8 8 8 8 7 7 7 7 7 7 7 6 6 6 6 6 6 5 5 5 5 5 5 4
9 8 10 9 9 9 10 12 12 12 12 12 12 12 12 11 11 11 10 10 9 9 8 8 8 8 8 7 7 7 7 7 7 7 7 6 6 6 6 6 6 6 5 5 5 5 5 4 4
9 9 8 8 8 9 11 11 10 10 10 11 10 11 11 11 10 10 10 9 9 8 8 8 8 7 7 7 7 7 7 7 6 6 6 6 6 6 6 6 5 5 5 5 5 4 4 4 4
7 7 7 7 8 9 10 10 11 10 10 10 10 11 10 10 10 9 9 9 8 8 8 7 7 7 7 7 7 7 6 6 6 6 6 6 6 5 5 5 5 5 5 4 4 4 4 4 4
8 7 7 6 7 8 8 9 11 10 10 10 10 10 10 9 9 9 8 8 8 8 7 7 7 7 7 7 6 6 6 6 6 6 5 5 5 5 5 5 5 5 4 4 4 4 4 3 3
Wind_Speed
9 11 8 3 4 6 9 8 6 1 2 4 6 5 4 5 4 8 5 7 11 12 13 13 12 12 12 12 12 12 12 11 11 11 10 9 9 8 8 8 7 7 6 5 4 4 3 4 3
10 9 6 4 5 7 8 10 8 2 6 5 5 4 4 6 7 9 6 8 10 12 13 13 12 12 12 12 12 11 11 11 11 11 10 10 9 9 8 7 7 7 7 7 6 4 3 3 3
11 9 5 4 6 8 5 2 3 7 8 4 3 2 3 6 8 6 7 8 9 12 14 14 13 12 12 12 11 11 11 11 10 10 10 10 9 9 8 8 7 6 6 6 6 5 4 3 2
6 4 5 7 12 10 8 1 7 7 5 3 4 4 5 5 5 8 8 8 10 11 14 14 13 12 11 11 11 11 10 10 10 9 9 9 9 8 9 8 8 6 5 6 6 6 5 4 2
5 5 7 9 13 11 6 1 6 4 6 5 5 5 6 5 11 11 8 8 10 11 12 13 13 12 11 10 10 10 10 10 9 8 8 8 8 8 7 8 7 7 5 5 5 6 5 4 4
4 5 7 11 13 11 7 3 4 5 5 6 5 4 6 7 9 8 7 7 10 11 11 12 13 12 12 11 10 10 9 9 8 8 7 7 7 7 7 7 7 7 6 5 4 4 4 3 3
6 5 9 11 10 8 6 5 6 5 5 5 4 5 7 8 8 8 7 8 9 10 9 9 10 11 11 11 10 9 9 8 8 8 7 7 7 7 7 6 6 6 6 5 4 3 3 3 3
5 5 8 11 10 7 2 3 2 2 3 3 2 3 7 10 9 8 7 7 8 8 7 7 8 9 9 9 9 9 8 7 7 6 6 5 5 6 6 6 6 6 5 5 4 4 3 3 3
5 5 8 9 7 4 3 3 2 3 2 2 3 4 9 15 11 8 7 6 7 7 6 6 6 7 8 7 8 8 6 5 5 4 3 4 4 4 4 4 4 5 5 5 5 5 4 4 3
6 7 8 5 4 2 3 3 3 3 3 3 5 7 12 12 10 9 8 8 7 7 6 5 6 6 5 5 6 5 4 4 4 4 4 4 4 3 4 3 4 4 5 5 6 6 5 4 3
6 7 6 5 4 4 2 1 2 4 5 6 8 11 11 10 9 9 8 7 7 7 6 6 5 5 4 3 3 4 4 3 4 3 3 3 3 3 3 3 3 4 4 5 6 5 4 3 2
8 8 7 5 2 2 3 3 4 7 3 1 6 12 13 11 10 9 9 8 7 7 6 6 5 4 4 3 2 3 2 2 3 3 3 4 3 3 3 3 3 4 4 3 4 3 4 3 3
13 9 7 4 2 3 5 6 6 7 3 0 4 9 11 11 9 8 7 7 7 7 6 6 5 4 3 2 1 2 2 2 3 3 3 3 2 1 2 2 3 4 5 4 3 3 3 3 3
7 8 8 6 6 5 7 8 7 7 5 5 7 9 10 10 9 8 7 7 7 7 7 6 6 5 4 3 2 1 2 3 3 2 2 3 2 2 1 1 2 3 4 4 4 4 3 3 2
4 6 8 9 9 6 5 9 11 10 7 8 9 10 10 10 9 8 8 7 8 8 7 6 6 5 4 3 2 2 2 2 2 2 2 2 2 2 1 1 1 3 4 5 4 4 3 3 3
6 6 7 8 10 7 6 9 8 9 11 10 9 9 10 10 9 8 8 7 8 8 8 7 6 5 4 3 2 1 2 2 2 2 2 2 2 2 1 1 1 3 4 3 3 3 3 3 4
8 8 10 7 10 8 9 8 5 5 9 10 10 10 10 9 9 8 9 8 8 8 8 7 6 6 4 3 2 2 2 1 1 2 2 1 1 2 1 1 1 3 2 2 3 3 3 4 4
8 9 9 9 8 9 10 9 5 5 7 9 9 9 10 10 10 9 8 8 8 8 8 7 6 5 4 3 2 1 1 1 1 2 1 1 1 1 2 1 2 2 2 2 3 3 3 3 4
7 8 8 4 3 6 9 10 8 7 8 8 8 8 9 9 9 9 9 9 8 8 8 7 6 5 4 3 2 2 1 1 1 1 1 1 0 0 1 1 2 2 2 3 3 3 4 4 4
10 9 7 1 2 4 6 10 9 9 10 9 9 9 9 8 9 10 9 9 8 8 8 8 7 6 5 3 3 2 2 1 1 1 1 1 1 1 1 1 2 2 2 3 3 3 3 3 3
11 9 7 4 2 4 5 8 11 10 10 10 9 7 8 9 10 10 10 9 8 8 8 8 7 6 5 4 3 2 1 1 1 2 2 2 2 2 1 2 2 2 2 2 3 3 3 3 3
8 6 6 4 3 4 6 6 6 7 10 11 10 8 8 7 8 10 10 10 9 8 8 8 7 6 5 5 4 4 3 2 3 2 2 3 2 2 2 2 2 2 2 3 3 3 3 3 4
3 1 3 4 5 5 6 5 6 7 8 9 9 8 7 7 8 9 10 10 9 8 8 7 7 6 5 5 5 4 3 2 2 2 3 3 3 3 3 3 2 3 3 3 4 4 3 3 4
2 1 1 3 3 6 9 8 6 5 9 8 8 7 7 6 6 7 8 9 8 8 7 7 7 6 6 6 5 5 4 3 3 2 3 3 2 3 3 3 3 3 3 4 4 4 4 4 5
4 4 2 3 4 7 7 7 6 4 5 7 7 7 6 6 6 7 8 9 9 9 8 7 7 6 6 6 5 5 4 4 4 3 3 3 3 3 4 3 3 3 4 4 4 4 5 5 5
6 6 5 5 5 4 5 7 3 3 3 5 5 5 5 5 5 6 7 8 9 9 8 7 7 6 6 6 5 4 4 3 3 3 3 3 3 3 3 3 4 4 5 5 5 4 5 5 5
5 6 3 2 2 2 5 3 3 3 4 5 5 5 5 4 4 4 6 6 8 8 8 8 7 6 6 6 5 4 4 4 3 3 3 3 3 3 3 3 4 5 5 5 5 5 6 5 5
3 3 2 3 4 4 5 5 4 6 4 4 4 5 4 3 4 4 5 5 6 7 6 6 5 5 5 5 4 4 4 3 3 3 3 3 3 3 3 3 4 5 5 5 5 5 5 6 6
4 3 3 3 4 3 3 2 1 5 6 5 4 4 5 4 3 3 4 4 5 5 5 5 4 4 4 4 4 3 3 2 2 2 3 3 3 3 3 4 4 5 5 5 5 6 6 6 7
4 5 5 4 4 4 2 2 3 5 5 5 4 5 5 5 3 3 4 4 4 4 4 4 4 3 3 3 3 3 2 2 2 2 3 2 3 3 3 4 4 5 5 5 5 6 6 7 7
Wind_Direction
263 245 232 225 226 231 239 241 246 157 48 31 22 25 31 33 35 113 157 109 108 111 109 100 95 92 87 84 80 77 74 71 68 65 64 64 64 63 64 63 62 60 57 56 56 65 73 74 80
269 235 224 229 235 232 235 226 237 141 92 62 34 20 55 77 78 106 118 114 116 111 107 103 98 93 89 85 81 78 75 72 68 64 61 61 60 57 57 59 58 58 55 50 49 53 60 64 70
265 241 222 225 230 234 244 182 136 96 92 105 104 20 38 85 102 113 122 129 112 103 103 104 102 97 92 87 82 78 75 72 68 64 61 60 58 57 54 52 51 55 55 50 45 45 53 57 53
234 217 241 240 241 240 254 81 93 104 102 140 140 108 75 53 93 113 129 125 111 106 105 109 105 99 94 89 84 79 75 72 68 64 61 58 56 55 52 52 49 49 53 49 42 40 45 45 32
239 226 226 236 244 252 264 91 108 136 151 176 178 129 98 73 96 115 132 123 112 106 106 111 109 104 98 92 87 81 76 71 67 64 61 59 57 55 51 48 44 41 46 48 43 37 36 35 32
223 234 229 230 236 236 237 184 146 188 183 166 172 144 115 125 118 128 130 121 108 106 104 111 113 108 102 95 90 84 79 73 67 64 60 56 55 54 52 48 43 39 38 40 37 28 22 20 20
236 241 245 248 245 232 217 165 176 193 196 171 163 133 128 137 131 136 131 116 107 108 110 110 111 108 105 99 93 88 81 76 71 66 61 57 56 53 50 46 40 35 30 26 20 11 7 5 356
255 267 247 246 250 250 206 132 153 212 204 141 146 149 145 147 138 136 125 114 109 113 118 120 118 112 105 102 101 98 91 84 79 70 62 57 54 49 44 39 33 24 17 10 1 347 336 327 323
255 249 245 241 246 241 127 141 137 31 48 91 70 43 121 135 140 138 131 127 127 130 130 127 116 106 106 110 112 114 110 106 97 82 62 50 50 47 44 45 26 13 5 358 350 338 318 303 290
218 237 241 271 311 337 100 148 144 158 180 166 116 97 119 136 149 156 159 157 149 145 137 123 112 107 105 108 121 127 118 112 94 71 54 52 42 32 33 36 18 359 351 345 337 329 319 307 304
211 237 252 275 353 359 355 259 187 202 212 194 164 148 145 154 165 171 170 164 155 147 136 122 116 110 105 100 112 98 94 92 80 65 57 51 38 30 25 19 4 351 351 343 331 325 326 314 312
233 237 255 273 10 331 276 263 245 229 232 199 158 155 157 170 179 181 175 165 150 137 128 122 121 121 115 108 101 110 102 89 78 61 53 48 40 29 19 25 5 6 356 343 336 334 330 319 312
233 244 246 251 235 247 264 256 255 248 227 148 138 152 167 177 182 181 168 155 147 140 135 131 128 128 125 113 122 110 103 97 92 71 55 54 54 14 20 19 13 6 354 348 335 335 328 315 310
231 235 244 234 229 229 236 246 241 234 197 190 176 171 177 182 182 176 168 165 153 145 143 138 137 135 131 135 145 122 107 115 104 84 62 54 52 34 20 6 4 0 347 338 336 334 320 305 298
248 249 249 230 219 216 226 245 229 222 199 199 193 184 183 185 183 180 174 167 154 150 147 143 143 137 139 146 152 124 121 116 110 102 81 53 48 31 26 359 348 347 340 338 337 332 328 318 313
225 229 236 219 206 198 204 246 225 200 197 204 200 191 185 185 186 180 172 163 153 152 150 149 151 144 144 139 136 125 114 100 107 115 100 68 37 24 17 343 334 348 346 342 326 330 331 324 313
214 222 224 214 197 188 204 245 225 177 189 202 201 195 189 185 187 181 171 161 156 152 149 148 147 148 146 144 153 147 130 130 114 100 90 68 21 9 11 333 325 346 342 328 322 333 329 318 312
208 219 225 211 192 193 210 237 232 196 201 208 205 198 190 189 189 178 168 157 151 147 145 147 144 147 143 140 144 129 135 146 111 102 113 112 21 8 1 335 329 343 327 322 322 322 321 310 305
249 243 242 232 180 196 224 242 239 216 212 219 213 204 194 188 178 168 161 154 149 148 148 151 151 154 146 148 154 153 166 175 163 156 153 179 206 322 346 311 309 311 301 297 305 310 311 312 317
253 257 259 254 168 207 245 253 246 225 216 212 212 205 194 185 174 164 157 154 156 155 154 156 160 160 155 162 167 169 172 188 193 202 206 218 227 244 274 267 276 286 290 301 304 304 304 309 330
239 239 244 241 253 237 266 267 235 227 218 212 211 207 195 187 177 166 163 161 160 160 161 165 163 161 160 160 152 151 140 180 238 227 219 222 223 229 254 267 273 284 283 282 287 292 298 300 305
237 241 243 234 233 243 210 264 240 211 207 206 205 203 199 192 175 169 168 166 166 165 161 161 161 161 162 156 158 169 188 211 226 222 229 236 226 232 239 252 259 268 274 278 280 289 280 277 285
229 252 239 238 240 270 231 242 256 203 210 200 194 196 194 186 176 173 171 167 163 158 159 161 160 162 163 164 171 181 198 219 226 224 235 243 239 229 235 243 252 262 268 271 278 281 276 267 266
171 142 201 250 243 254 225 219 255 210 209 198 187 184 181 175 172 171 165 157 157 154 157 163 163 166 169 172 180 186 196 210 219 233 237 246 248 241 238 242 244 257 265 267 268 266 267 266 266
187 153 159 193 217 239 200 207 239 217 188 183 180 178 171 166 168 169 165 163 161 160 163 169 167 172 175 179 188 193 199 202 212 223 232 246 257 257 245 252 252 261 265 265 264 264 263 262 263
206 196 187 195 210 225 198 216 226 160 128 135 138 141 140 141 155 165 165 163 162 164 168 173 176 179 179 183 195 199 202 204 211 219 230 241 246 250 249 252 255 258 263 270 266 266 261 265 263
190 220 259 280 274 258 226 214 164 124 112 115 117 114 124 131 139 152 156 159 160 166 175 179 180 181 183 188 194 200 204 209 216 219 227 241 249 258 257 255 257 263 263 265 265 263 266 268 265
245 209 172 189 204 234 226 214 199 171 165 143 138 134 132 122 129 138 148 156 159 165 169 171 180 184 186 189 197 210 211 212 214 217 228 242 249 253 258 268 262 266 268 267 266 269 270 268 266
198 205 218 215 239 224 232 230 73 149 152 146 130 124 126 123 123 134 137 140 143 147 158 172 181 184 187 190 197 204 205 196 194 214 229 235 248 254 259 263 267 268 268 269 269 272 275 275 275
232 205 185 197 237 237 253 249 36 90 107 106 105 100 103 103 97 102 111 122 132 146 161 170 179 187 192 190 198 200 192 186 207 233 233 236 254 260 259 266 269 269 271 269 269 275 280 275 275
Height
1481 1483 1486 1489 1492 1490 1483 1469 1459 1458 1460 1463 1464 1465 1468 1475 1478 1491 1492 1492 1492 1493 1494 1496 1498 1499 1500 1502 1503 1505 1506 1507 1508 1509 1509 1510 1511 1512 1512 1513 1513 1514 1515 1515 1516 1516 1517 1518 1518
1480 1484 1488 1489 1488 1488 1477 1464 1460 1459 1462 1465 1467 1469 1471 1478 1482 1486 1489 1491 1493 1493 1494 1496 1497 1499 1500 1502 1503 1504 1505 1506 1507 1508 1509 1510 1510 1511 1511 1512 1513 1513 1514 1514 1515 1515 1516 1516 1517
1479 1484 1487 1483 1480 1477 1468 1456 1457 1460 1464 1468 1471 1473 1476 1481 1483 1485 1488 1491 1493 1493 1494 1496 1497 1499 1500 1501 1503 1504 1505 1506 1507 1508 1508 1509 1509 1510 1511 1511 1512 1512 1513 1513 1514 1514 1515 1515 1516
1481 1484 1484 1480 1475 1465 1460 1456 1457 1462 1466 1469 1472 1475 1479 1483 1484 1485 1488 1491 1492 1493 1494 1495 1497 1498 1500 1501 1502 1503 1504 1505 1506 1507 1507 1508 1508 1509 1509 1510 1511 1511 1512 1512 1513 1513 1513 1514 1515
1480 1481 1480 1477 1470 1461 1456 1455 1458 1463 1467 1470 1472 1475 1480 1483 1483 1485 1488 1491 1492 1492 1493 1495 1497 1498 1499 1500 1501 1502 1503 1504 1505 1505 1506 1506 1507 1507 1508 1509 1509 1510 1510 1511 1511 1512 1512 1512 1513
1479 1476 1476 1474 1466 1459 1456 1456 1459 1463 1466 1468 1471 1474 1480 1483 1483 1486 1489 1491 1492 1491 1493 1494 1496 1497 1498 1499 1500 1501 1502 1503 1503 1504 1504 1505 1505 1506 1506 1507 1508 1508 1509 1509 1509 1510 1510 1510 1511
1476 1473 1471 1465 1461 1457 1454 1455 1459 1462 1465 1467 1470 1473 1479 1482 1483 1486 1488 1490 1491 1491 1492 1494 1495 1496 1497 1498 1499 1500 1501 1501 1502 1502 1503 1503 1504 1504 1505 1505 1506 1506 1507 1507 1507 1508 1508 1508 1509
1472 1470 1465 1463 1460 1456 1453 1455 1458 1462 1464 1467 1469 1472 1476 1480 1482 1485 1488 1489 1490 1491 1492 1493 1494 1495 1496 1497 1498 1499 1500 1500 1501 1501 1501 1502 1502 1502 1503 1503 1504 1504 1504 1505 1505 1505 1506 1506 1506
1471 1472 1465 1459 1457 1455 1454 1456 1460 1462 1464 1467 1469 1470 1472 1477 1480 1484 1486 1488 1489 1490 1492 1493 1493 1494 1495 1496 1497 1498 1498 1499 1499 1500 1500 1500 1500 1501 1501 1501 1502 1502 1502 1502 1503 1503 1503 1503 1504
1468 1468 1460 1455 1453 1454 1455 1457 1460 1463 1465 1467 1469 1471 1473 1476 1479 1481 1483 1485 1487 1489 1491 1491 1492 1493 1494 1495 1496 1496 1497 1497 1498 1498 1499 1499 1499 1499 1499 1499 1500 1500 1500 1500 1500 1500 1500 1501 1501
1463 1461 1457 1455 1455 1456 1457 1459 1461 1463 1465 1465 1467 1470 1472 1475 1478 1480 1482 1484 1486 1488 1489 1490 1491 1492 1493 1494 1494 1495 1496 1496 1497 1497 1497 1497 1497 1498 1498 1498 1498 1498 1498 1497 1498 1498 1498 1498 1498
1458 1457 1456 1456 1457 1458 1459 1460 1461 1461 1463 1463 1464 1466 1469 1472 1475 1478 1480 1482 1484 1486 1487 1488 1489 1490 1491 1492 1493 1494 1495 1495 1495 1496 1496 1496 1496 1496 1496 1496 1496 1495 1495 1495 1495 1495 1495 1495 1495
1456 1455 1455 1456 1457 1459 1460 1460 1460 1460 1461 1462 1463 1465 1467 1470 1473 1476 1479 1481 1482 1484 1485 1486 1487 1488 1489 1491 1491 1492 1493 1494 1494 1495 1495 1495 1494 1494 1494 1494 1494 1494 1493 1493 1493 1493 1493 1492 1492
1452 1453 1454 1455 1456 1457 1459 1458 1459 1456 1459 1460 1462 1464 1466 1468 1471 1474 1476 1478 1479 1481 1482 1484 1485 1487 1488 1489 1490 1491 1492 1492 1493 1493 1493 1493 1493 1493 1493 1492 1492 1492 1491 1491 1491 1490 1490 1490 1489
1452 1454 1453 1452 1453 1455 1457 1457 1454 1453 1456 1458 1459 1461 1464 1466 1469 1471 1473 1475 1477 1478 1480 1481 1483 1485 1486 1487 1488 1489 1490 1491 1491 1491 1492 1492 1491 1491 1491 1491 1490 1490 1489 1489 1488 1488 1487 1486 1486
1452 1454 1455 1448 1449 1452 1458 1456 1448 1448 1452 1454 1456 1458 1461 1463 1466 1468 1470 1472 1474 1475 1477 1479 1481 1482 1484 1485 1486 1487 1488 1489 1489 1490 1490 1490 1490 1490 1489 1489 1488 1488 1487 1486 1486 1485 1484 1484 1483
1452 1453 1451 1447 1444 1447 1452 1451 1445 1445 1447 1450 1452 1454 1457 1460 1463 1465 1467 1469 1471 1472 1474 1476 1478 1480 1482 1483 1484 1485 1486 1487 1487 1488 1488 1488 1488 1488 1487 1487 1486 1486 1485 1484 1483 1482 1482 1481 1479
1449 1447 1443 1443 1441 1444 1448 1446 1444 1443 1445 1446 1448 1450 1453 1455 1458 1461 1464 1466 1468 1470 1471 1473 1475 1477 1479 1480 1482 1483 1484 1485 1485 1486 1486 1486 1486 1486 1485 1485 1484 1484 1483 1482 1481 1480 1479 1478 1477
1439 1440 1440 1439 1439 1442 1445 1443 1441 1441 1442 1443 1444 1446 1449 1451 1455 1458 1461 1463 1465 1467 1468 1470 1472 1474 1476 1477 1478 1480 1481 1482 1483 1483 1483 1484 1484 1483 1483 1482 1482 1481 1480 1479 1478 1477 1476 1475 1474
1438 1441 1440 1440 1439 1442 1444 1442 1438 1436 1437 1438 1440 1442 1444 1448 1451 1453 1456 1459 1461 1463 1465 1467 1469 1471 1473 1474 1476 1477 1478 1479 1480 1480 1481 1481 1481 1481 1480 1480 1479 1478 1478 1477 1476 1475 1473 1472 1472
1438 1441 1440 1442 1442 1442 1445 1443 1435 1431 1432 1434 1436 1438 1440 1443 1446 1449 1452 1454 1457 1459 1461 1463 1466 1468 1470 1472 1473 1475 1476 1476 1477 1477 1478 1478 1478 1478 1478 1477 1476 1476 1475 1474 1473 1472 1471 1469 1469
1440 1436 1437 1440 1447 1449 1446 1451 1431 1426 1427 1428 1430 1433 1436 1439 1442 1444 1447 1450 1453 1456 1459 1461 1463 1465 1467 1469 1470 1471 1472 1472 1473 1474 1475 1475 1475 1475 1474 1474 1473 1473 1472 1471 1470 1469 1468 1467 1465
1436 1436 1438 1441 1445 1448 1444 1449 1434 1423 1425 1424 1426 1428 1431 1435 1438 1440 1443 1446 1450 1453 1456 1458 1460 1462 1464 1465 1467 1468 1469 1470 1471 1471 1471 1471 1471 1471 1471 1471 1470 1469 1468 1467 1467 1466 1465 1464 1462
1436 1439 1441 1443 1447 1454 1442 1444 1433 1424 1420 1420 1422 1424 1427 1431 1434 1437 1440 1443 1447 1450 1453 1455 1457 1458 1460 1462 1464 1465 1466 1466 1467 1467 1467 1468 1468 1467 1467 1467 1466 1465 1464 1464 1463 1462 1461 1460 1459
1437 1445 1453 1454 1456 1448 1431 1435 1428 1416 1413 1415 1418 1421 1424 1427 1430 1433 1436 1439 1442 1445 1449 1451 1453 1455 1457 1459 1460 1461 1462 1463 1463 1463 1464 1464 1464 1463 1463 1463 1462 1461 1461 1460 1459 1458 1457 1456 1455
1437 1439 1446 1449 1446 1437 1428 1430 1420 1411 1411 1412 1416 1419 1422 1425 1428 1431 1433 1436 1439 1442 1445 1448 1450 1452 1454 1455 1457 1458 1459 1459 1459 1460 1460 1460 1460 1460 1459 1459 1458 1457 1457 1456 1455 1454 1453 1451 1450
1435 1437 1434 1439 1437 1439 1429 1419 1415 1412 1412 1414 1416 1418 1421 1424 1427 1429 1431 1434 1436 1439 1442 1444 1447 1449 1451 1452 1453 1454 1455 1456 1456 1456 1456 1456 1456 1456 1455 1455 1454 1453 1452 1451 1450 1449 1448 1446 1445
1432 1432 1438 1441 1440 1435 1422 1419 1420 1417 1416 1416 1417 1418 1421 1424 1426 1428 1430 1432 1434 1437 1440 1442 1445 1446 1448 1449 1450 1451 1451 1452 1452 1452 1452 1452 1452 1451 1451 1450 1449 1449 1448 1447 1446 1444 1443 1441 1440
1434 1436 1435 1436 1433 1433 1428 1424 1411 1412 1413 1415 1417 1418 1420 1423 1425 1427 1429 1431 1433 1435 1437 1440 1442 1444 1445 1446 1447 1447 1448 1448 1448 1448 1448 1448 1448 1447 1446 1446 1445 1444 1443 1442 1441 1439 1437 1436 1434
1430 1431 1436 1440 1436 1430 1430 1429 1412 1412 1412 1415 1417 1419 1421 1423 1425 1427 1428 1430 1431 1433 1435 1437 1439 1440 1441 1442 1443 1444 1444 1444 1444 1444 1444 1444 1444 1443 1443 1442 1441 1440 1439 1438 1436 1434 1432 1431 1429